Theta_e
304 304 304 304 304 304 304 304 305 304 303 301 299 302 300 300 297 310 313 313 308 300 293 296 294 293 295 299 298 299 298 296 298 295 296 294 297 294 293 292 291 293 292 292 291 293 290 290 289 290 291 293 294 297 297 298 296 295 293 294 295 298 290 286 288 292 294 296 298 298 299 298 295 296 297 296 293 294 293 293 295 291 293 291 291 288 293
304 304 304 304 304 304 304 304 305 304 303 301 301 299 299 300 301 304 312 313 307 297 288 289 291 293 296 297 296 300 298 298 296 295 295 292 294 294 294 295 297 292 295 294 290 294 286 290 290 290 292 292 297 297 297 298 295 293 293 290 297 287 289 288 284 284 286 289 293 293 297 296 293 293 296 297 297 297 297 297 299 290 294 293 291 285 291
304 305 304 304 304 304 304 304 304 304 304 304 301 296 299 299 304 304 306 309 305 294 296 292 290 291 291 292 293 295 297 300 299 297 296 296 293 293 294 296 297 295 297 293 294 294 291 288 293 292 293 293 297 298 297 298 296 297 298 299 298 290 290 288 282 279 277 277 279 282 286 290 294 295 295 296 295 294 294 289 293 287 294 295 291 290 298
305 305 304 304 304 304 304 304 304 304 304 304 302 299 297 298 290 298 303 304 304 301 303 298 293 290 290 289 294 296 294 298 302 300 298 297 295 294 294 296 298 295 295 292 292 292 294 291 291 292 292 294 294 297 297 297 297 299 300 299 298 291 293 291 289 286 284 287 289 294 294 293 289 292 294 295 296 296 296 296 292 288 293 292 295 297 297
305 305 304 304 304 304 304 304 304 304 304 304 301 300 299 299 293 292 291 297 299 298 300 296 296 291 295 288 294 291 294 296 299 302 295 297 293 289 291 291 288 293 294 292 291 293 293 294 292 292 292 294 295 296 297 297 299 303 298 299 297 293 289 291 291 291 290 292 292 294 294 292 293 292 293 294 294 296 296 291 290 297 293 288 297 301 298
305 305 305 304 304 303 304 304 304 304 303 304 305 299 301 292 296 298 301 291 290 290 292 297 294 297 297 292 296 293 294 295 293 298 300 300 297 289 289 286 290 289 290 291 287 291 293 293 289 294 295 297 298 293 296 295 299 299 296 299 295 293 287 292 292 291 293 294 293 295 294 294 294 294 294 294 295 296 296 296 297 299 291 290 299 302 299
305 305 305 305 304 304 304 304 304 304 303 303 306 295 298 298 296 298 299 291 293 292 294 296 296 295 295 293 296 294 294 293 297 295 296 298 296 293 286 287 289 290 290 292 291 293 289 288 294 293 295 295 295 294 293 295 299 296 296 297 298 294 289 293 292 291 293 293 294 294 294 294 294 294 294 295 295 295 296 297 298 297 298 300 302 302 303
304 304 305 305 304 304 304 304 304 304 303 305 303 298 294 291 291 291 295 295 293 296 297 296 295 292 296 291 295 295 293 294 296 298 297 292 297 297 291 293 293 289 292 293 290 294 295 294 289 295 296 294 296 294 295 292 296 296 295 296 298 293 288 292 292 290 290 293 294 294 294 293 292 294 295 295 295 295 296 297 299 300 299 301 303 302 300
304 304 304 305 305 304 304 304 304 304 303 302 299 299 298 298 299 297 290 288 293 295 296 294 294 292 295 293 295 296 296 294 297 296 301 299 297 298 296 299 294 294 292 289 289 295 297 298 298 299 297 292 297 295 295 297 293 294 294 295 296 294 289 294 293 287 287 292 292 293 294 294 293 293 294 295 294 294 295 293 298 297 297 300 301 298 296
303 304 304 305 305 304 304 304 304 303 303 301 299 296 301 299 300 299 294 287 293 292 296 296 295 290 295 295 296 295 295 296 298 292 300 301 302 303 300 301 300 296 289 288 292 297 298 299 302 303 304 304 302 301 300 299 296 293 293 297 293 294 291 288 289 286 286 292 293 292 292 291 288 290 294 295 297 297 297 297 299 301 302 297 292 295 302
303 304 304 305 304 305 304 305 304 304 303 299 297 296 297 294 292 294 294 288 291 293 293 293 291 295 296 298 296 297 295 296 298 293 292 299 301 304 303 301 298 296 296 297 300 302 303 305 305 306 303 303 301 301 301 300 300 298 295 294 294 296 294 290 293 285 286 290 291 294 289 282 284 296 301 298 296 297 296 296 299 301 300 297 301 301 308
304 304 304 304 305 305 305 305 305 304 303 303 303 299 299 299 297 295 291 286 287 293 292 290 293 295 295 296 295 294 294 296 298 300 296 299 301 304 302 301 300 292 303 308 308 307 306 306 305 305 303 303 302 302 301 299 300 301 299 295 293 293 294 291 294 288 286 291 291 286 282 284 297 300 301 301 300 299 298 300 299 300 300 301 300 301 302
304 304 304 304 304 305 305 305 304 304 304 304 302 298 302 303 297 294 292 289 286 290 289 291 295 296 297 296 294 295 297 299 300 299 298 300 299 302 304 302 301 301 308 305 307 305 300 299 299 300 300 301 300 300 299 299 299 300 300 298 296 291 290 290 290 291 290 288 287 280 283 295 300 301 302 303 301 301 300 297 299 301 300 301 300 301 302
304 303 304 304 304 305 305 305 304 304 304 305 301 302 303 302 296 293 292 287 286 291 292 291 294 294 294 294 295 296 298 297 297 298 296 300 299 300 302 303 304 306 309 309 305 303 296 297 291 293 294 295 295 293 296 299 299 298 298 298 298 296 295 292 288 293 285 286 286 286 295 294 297 298 299 299 296 298 297 290 296 302 303 302 300 302 302
304 304 303 304 304 305 305 304 305 304 304 304 304 303 303 303 301 296 295 292 286 289 292 288 290 292 294 295 295 293 294 294 292 292 298 301 301 302 303 303 306 308 310 306 301 302 295 295 288 287 289 287 283 286 296 293 299 300 299 299 298 298 292 297 290 287 291 286 285 287 286 283 289 302 306 306 309 306 306 301 296 304 304 304 303 302 302
304 304 303 304 304 304 304 304 304 304 304 304 304 302 303 304 303 300 296 292 289 284 291 294 294 294 293 293 295 293 290 290 291 293 295 297 299 301 303 304 306 309 307 303 302 297 293 289 287 287 285 287 292 290 287 292 292 297 299 299 299 299 298 297 291 288 289 287 284 284 283 286 295 300 305 308 307 308 305 298 291 301 304 304 304 302 304
304 304 304 304 304 304 304 304 304 304 304 304 301 301 301 306 303 299 295 294 291 286 295 296 297 296 293 291 294 292 293 289 291 288 288 292 296 299 300 302 307 308 304 302 300 295 291 289 292 291 291 293 289 286 292 290 289 291 295 297 296 295 294 291 290 287 289 287 286 284 288 288 297 303 305 306 306 308 302 287 288 308 313 306 305 303 304
304 304 304 303 304 304 304 304 304 304 304 305 303 301 300 305 305 302 296 293 289 289 295 298 295 291 290 292 290 294 296 295 294 295 292 295 297 297 296 299 300 304 306 297 297 293 290 289 287 288 288 296 295 293 284 290 288 288 289 290 290 290 290 291 288 289 289 287 287 289 290 297 305 305 306 307 309 305 290 286 296 310 312 312 312 311 308
304 304 304 303 304 304 304 304 304 304 304 304 304 302 302 305 306 303 298 293 292 287 295 298 298 295 297 299 297 296 296 295 294 290 291 292 296 298 298 299 303 295 302 295 297 292 290 290 295 293 289 292 295 286 293 288 288 292 292 288 289 290 290 290 291 289 288 289 287 287 290 298 304 308 309 309 303 289 289 304 314 314 311 313 313 312 313
304 303 303 303 303 303 304 304 304 304 304 304 303 299 301 303 305 304 298 292 293 290 294 295 297 295 298 295 292 292 293 294 294 292 291 288 297 297 295 292 298 301 297 298 291 295 291 288 291 294 291 291 294 298 293 292 295 292 291 294 290 290 288 288 288 291 291 289 287 286 284 293 305 307 306 308 295 299 306 312 314 314 314 313 314 313 314
303 303 303 303 304 304 304 304 304 304 304 303 303 300 298 304 305 306 304 299 293 288 291 299 299 298 298 297 298 297 295 292 293 291 294 294 297 295 286 287 292 296 292 293 289 290 292 290 292 291 296 294 296 297 289 290 292 298 296 293 293 298 289 289 290 295 287 286 284 286 295 302 308 307 298 306 307 309 313 312 311 313 314 316 314 316 317
303 303 303 303 303 304 304 304 305 304 304 304 303 301 297 302 305 305 304 303 295 291 294 299 300 299 300 301 301 301 300 298 299 299 295 292 297 295 295 297 297 299 299 299 295 292 296 295 296 291 290 294 299 292 295 290 287 293 298 297 288 298 294 296 289 298 292 291 293 299 302 304 309 310 310 311 311 313 312 312 312 312 314 317 316 317 318
303 303 303 303 303 303 304 304 305 304 304 304 303 300 297 300 302 306 304 297 299 299 300 299 300 301 302 302 304 304 304 305 304 302 301 296 293 297 296 297 299 303 302 303 296 295 295 296 291 296 294 295 292 291 295 294 290 295 291 297 296 302 303 305 300 297 302 302 303 305 304 307 309 312 314 313 312 313 314 314 310 313 314 315 315 316 317
303 303 303 303 303 304 304 304 304 304 304 304 303 300 298 301 303 302 301 299 295 291 295 299 296 293 297 297 303 306 306 305 304 305 306 303 293 293 298 303 302 301 301 303 307 299 298 295 295 297 291 296 297 292 289 289 289 297 296 295 298 301 303 302 296 300 296 290 303 302 306 309 311 310 312 315 314 313 313 314 314 314 314 314 319 317 319
303 303 303 303 304 304 304 304 305 304 304 303 303 304 303 301 303 303 299 290 291 290 285 290 293 299 302 304 305 303 303 305 306 306 304 305 301 296 295 300 303 299 298 302 304 301 299 294 295 295 290 298 298 291 298 292 292 300 292 295 298 296 308 299 299 299 293 294 303 306 309 310 311 311 311 310 312 313 312 314 317 315 316 316 316 319 318
303 303 303 303 303 304 304 304 304 304 304 303 303 301 300 300 303 304 302 299 298 295 287 287 293 302 303 301 299 302 305 305 304 303 304 304 305 304 302 303 303 306 304 304 303 298 296 295 295 294 293 292 301 294 293 297 297 301 297 298 301 301 304 293 301 298 300 302 305 307 307 308 310 311 311 311 311 311 315 316 316 315 315 316 315 315 315
303 303 303 303 303 303 304 304 304 304 303 303 303 302 301 301 304 302 299 297 292 288 291 288 294 297 300 297 301 303 306 306 306 304 303 303 303 305 304 303 301 302 302 302 304 300 298 296 295 294 298 297 301 299 300 300 299 295 295 301 304 302 297 302 300 294 292 297 301 307 298 295 304 308 309 311 312 313 312 316 314 315 314 314 313 314 315
303 303 303 303 303 303 304 304 304 304 303 303 303 303 304 302 303 304 304 302 296 288 288 288 290 294 299 297 303 303 303 303 303 303 303 303 304 303 303 302 303 301 301 300 295 296 296 294 295 296 299 302 299 295 304 302 302 299 298 301 303 300 302 302 296 295 295 303 306 309 308 307 308 310 311 312 314 314 314 313 313 313 315 315 315 315 314
303 303 303 303 303 304 305 304 303 303 303 302 303 302 303 304 305 306 305 306 303 296 292 292 294 293 290 296 301 301 305 305 304 303 303 302 302 303 302 302 302 302 303 301 298 297 296 296 296 297 297 303 299 294 297 291 292 291 298 303 305 306 309 306 305 304 305 307 309 311 308 306 308 310 312 313 315 315 313 313 314 313 313 314 314 314 314
303 303 303 303 304 305 304 303 303 302 303 302 300 299 295 297 304 305 306 305 303 299 290 287 284 288 299 299 298 302 303 305 305 304 303 302 301 302 302 302 302 303 303 299 298 294 297 297 296 303 303 308 299 296 293 294 294 298 304 304 306 307 307 308 309 305 303 309 311 312 312 310 312 313 313 315 315 314 314 313 313 313 313 314 314 315 315
303 303 303 304 304 304 304 303 303 303 302 301 299 291 290 289 299 306 303 305 305 298 291 290 287 292 291 299 301 300 302 303 303 303 303 303 302 303 304 304 304 304 298 299 299 298 298 296 297 300 303 304 301 295 295 294 292 298 303 304 305 305 307 306 308 309 310 312 313 313 313 312 313 312 311 313 314 315 316 314 313 313 315 314 314 315 315
303 303 304 304 304 304 303 303 302 302 302 299 296 294 297 298 301 303 302 302 302 297 291 287 286 288 289 293 300 303 302 303 303 303 302 303 301 303 305 304 303 305 300 298 299 298 297 298 296 300 300 309 301 298 298 295 292 294 302 305 307 307 307 308 310 310 311 313 312 310 310 310 310 308 307 311 312 315 315 312 313 314 313 314 316 315 315
303 303 304 304 304 303 303 302 302 302 301 302 304 304 303 302 302 302 303 304 299 295 296 289 284 287 286 293 299 301 304 303 301 302 300 305 301 305 303 306 305 303 307 300 297 296 301 297 296 297 301 309 296 296 297 294 297 301 302 303 305 308 306 307 309 313 313 313 312 307 307 309 310 311 312 311 312 313 313 313 313 313 314 312 312 313 314
303 304 304 303 303 302 302 302 302 302 302 300 297 299 304 304 304 303 305 303 297 296 293 287 285 286 287 297 293 300 303 296 297 301 295 304 305 303 299 302 304 297 302 298 300 299 301 300 296 296 301 295 299 294 291 297 301 301 302 302 305 306 307 307 309 310 310 311 313 313 312 313 314 314 314 313 312 312 313 313 312 310 311 311 311 312 312
304 304 303 303 302 303 302 302 301 299 297 298 300 305 303 302 305 306 304 299 291 288 288 288 288 286 287 289 288 295 302 298 295 299 294 298 305 300 301 295 296 294 296 306 298 298 296 296 301 294 292 299 293 290 291 297 300 301 302 302 303 304 304 304 308 309 310 311 311 312 313 313 312 311 308 310 312 311 311 312 312 311 309 309 310 311 312
303 303 303 302 302 302 301 301 300 298 297 297 301 302 303 304 305 306 305 303 297 291 288 288 289 287 288 284 286 293 302 297 300 300 299 299 298 302 300 297 291 296 303 297 294 300 294 302 297 292 297 291 290 294 297 300 299 300 302 302 303 303 303 304 308 308 309 311 311 312 310 311 310 309 309 309 309 310 310 310 310 310 309 308 309 311 311
303 302 302 302 301 300 297 297 301 301 300 305 303 302 301 302 306 305 302 298 300 300 291 288 286 287 290 288 291 293 298 289 298 295 298 294 293 296 295 293 291 295 296 294 294 293 297 303 295 292 292 290 292 299 300 301 301 300 301 304 305 305 305 305 310 310 308 309 310 309 308 308 308 308 309 310 309 309 309 308 308 307 307 307 307 308 309
302 302 300 297 297 293 293 296 301 303 302 299 301 299 299 298 292 293 294 291 295 297 292 292 286 291 294 292 287 299 297 293 298 292 293 296 293 293 294 292 293 293 288 291 295 303 297 294 293 292 292 298 300 300 301 302 302 304 305 305 305 307 307 309 312 309 307 306 305 306 305 306 306 307 307 308 308 307 308 308 308 309 309 309 309 310 310
300 299 297 297 295 292 293 301 303 299 304 302 301 293 291 294 291 289 289 292 291 289 292 290 288 293 292 292 294 301 296 293 292 295 290 298 291 289 294 289 294 293 290 290 293 301 290 291 292 292 291 296 298 300 302 303 303 306 305 305 306 309 310 310 311 309 308 306 306 307 307 308 309 308 308 308 309 310 308 308 308 309 309 309 308 308 309
297 294 293 293 293 296 302 304 305 301 300 292 295 292 287 292 288 286 293 288 288 291 292 288 295 295 296 293 292 293 302 296 290 290 291 293 300 290 293 292 293 290 286 287 290 299 290 287 290 291 289 296 298 302 303 303 303 305 306 306 308 310 312 312 312 311 310 310 311 310 310 309 309 309 308 308 308 307 306 308 309 310 310 310 309 309 309
296 296 296 293 298 300 302 304 303 301 295 291 290 290 288 286 290 291 289 287 287 288 296 295 296 294 296 296 296 292 301 303 301 299 296 290 298 297 291 287 294 288 286 286 293 294 292 289 290 289 291 297 300 302 303 304 304 304 306 307 307 308 312 311 311 311 309 311 310 309 311 310 310 309 309 309 307 306 308 308 309 309 310 309 309 310 310
301 299 300 302 301 302 301 298 296 292 291 292 287 284 287 287 290 289 290 285 286 290 295 294 291 293 293 296 295 297 296 302 300 295 293 288 294 291 289 291 292 287 284 291 296 292 291 286 287 289 295 299 301 303 303 302 303 305 306 307 307 306 308 310 310 309 309 308 309 308 310 309 310 309 309 309 307 308 308 308 308 309 309 310 310 309 310
301 302 302 298 296 293 295 289 292 291 285 284 284 281 286 284 286 285 287 291 295 292 293 300 297 299 299 301 297 300 296 302 294 292 291 289 294 293 290 289 288 284 288 296 291 289 287 286 287 291 298 299 301 301 302 303 304 305 307 307 307 308 307 307 308 309 310 309 310 310 310 308 309 311 310 309 308 307 308 308 308 309 310 310 309 309 309
300 299 296 294 290 290 292 281 292 287 285 286 283 279 282 282 285 287 286 288 292 291 294 291 293 292 288 297 294 293 294 296 296 295 293 294 291 288 288 286 286 291 297 290 288 286 287 290 291 295 298 301 301 301 301 302 303 305 305 307 308 309 308 309 307 307 307 309 310 310 310 309 309 310 310 309 308 307 308 309 309 309 310 309 309 308 309
293 290 290 288 286 289 287 280 291 287 281 284 286 285 286 284 286 288 287 292 294 291 295 295 294 294 291 296 295 294 293 290 296 290 287 291 288 290 287 286 291 292 288 285 287 288 287 288 295 297 297 298 300 300 301 301 302 302 304 306 307 308 308 307 307 307 308 307 308 308 307 308 308 307 308 309 308 309 309 309 310 309 309 308 308 308 309
289 288 287 283 280 286 286 282 286 283 287 289 287 290 289 291 291 291 294 296 294 294 293 294 294 293 291 295 290 289 292 292 289 289 291 291 287 285 291 294 292 287 286 286 284 284 285 291 295 296 298 299 299 300 300 301 301 302 302 303 305 306 307 307 307 306 306 308 309 307 308 308 307 306 307 308 309 310 310 310 310 309 308 307 306 307 308
290 290 289 288 283 286 288 282 284 287 290 291 292 293 293 293 294 294 296 296 294 295 295 296 295 294 291 291 291 292 292 292 288 290 292 286 285 289 293 288 284 285 283 283 284 285 288 292 294 297 298 299 299 299 299 299 299 299 300 302 303 304 306 307 307 307 307 307 306 307 307 307 306 308 308 308 309 310 309 309 310 309 307 306 306 307 307
286 290 289 282 280 284 283 285 291 291 293 293 294 295 295 295 293 292 295 296 296 296 294 294 291 293 291 296 294 289 290 291 288 289 291 288 290 287 286 285 285 287 287 285 285 290 291 293 295 296 297 298 298 297 298 298 298 298 299 300 301 302 304 306 306 307 307 307 307 308 308 308 308 308 307 307 307 308 309 308 307 307 306 306 305 306 306
291 288 285 285 286 287 287 291 291 289 291 293 294 294 294 293 292 293 295 296 295 294 295 293 291 290 287 290 289 288 286 290 285 286 290 288 284 282 283 281 283 283 287 289 289 292 293 295 296 297 297 296 296 296 296 297 297 298 298 298 299 300 302 302 304 307 308 307 306 305 306 306 308 306 305 306 305 306 308 307 306 305 305 305 305 303 304
288 287 289 288 287 288 291 292 290 288 291 292 292 292 293 292 291 293 297 294 295 295 295 293 293 289 288 288 285 287 286 289 287 288 286 284 285 286 285 282 284 284 285 291 292 293 295 295 295 294 294 294 294 295 295 296 294 296 298 297 297 298 300 302 301 303 306 307 306 307 306 306 306 304 304 304 305 307 305 305 306 305 305 305 304 304 304
291 289 289 293 288 287 290 285 286 286 288 289 291 291 291 291 292 292 296 294 294 292 290 287 289 288 287 286 285 281 285 290 287 285 285 285 288 286 284 283 286 289 291 294 295 294 294 294 293 292 292 292 293 294 294 295 295 296 297 297 297 297 298 300 300 300 301 303 305 298 304 304 307 306 306 306 305 305 304 302 302 305 303 304 305 303 305
288 286 286 290 292 291 291 292 292 291 291 292 291 293 293 291 293 294 297 295 293 289 287 290 288 286 285 282 285 288 290 287 285 286 284 287 288 285 286 287 289 291 293 293 293 294 293 293 292 291 291 290 291 292 293 294 294 295 295 297 296 295 296 297 297 298 299 299 300 300 301 304 308 308 306 306 305 304 303 303 304 304 304 305 305 305 305
Wind_Speed
18 19 20 21 22 22 23 24 24 22 22 14 11 11 8 7 4 6 8 5 3 4 6 7 4 6 5 13 13 12 11 8 6 4 5 7 5 5 7 8 9 9 7 10 10 10 8 8 5 5 3 10 14 7 12 11 11 12 7 6 3 7 5 5 8 10 9 11 13 18 18 17 18 16 15 17 17 16 11 10 10 10 10 11 8 7 5
18 19 20 21 21 23 23 23 23 22 19 13 12 9 7 8 5 4 4 4 2 2 4 9 9 10 13 13 14 12 10 9 8 7 4 3 5 6 6 8 7 10 9 10 10 10 6 4 8 4 1 3 3 7 12 12 10 9 6 3 6 4 4 4 4 4 7 11 13 15 15 14 12 12 13 16 17 19 16 12 7 5 7 12 9 8 5
18 19 20 20 22 21 22 23 23 21 18 14 10 7 9 10 7 5 5 5 3 3 4 6 8 10 13 15 16 14 9 7 11 10 8 7 5 7 6 7 9 10 9 11 10 9 9 7 13 11 9 2 3 10 11 13 10 8 10 10 7 4 3 1 5 7 8 8 11 12 12 13 9 13 17 19 23 24 16 8 2 2 4 14 5 5 7
17 18 19 20 21 21 20 21 23 23 20 15 10 8 7 6 5 2 6 6 5 7 5 4 3 8 10 13 10 12 13 14 9 8 8 11 5 5 9 12 10 10 9 9 9 10 7 7 4 6 7 1 2 3 10 12 9 13 4 9 6 4 5 7 6 6 6 8 9 10 11 10 13 17 18 17 16 16 15 7 3 6 6 7 8 6 8
17 17 18 19 19 19 20 22 24 24 24 17 11 7 5 5 4 5 6 4 7 6 5 4 7 7 10 9 9 15 16 15 11 6 6 9 6 3 4 3 7 6 7 7 10 9 11 8 10 9 7 5 2 5 10 9 8 14 5 6 5 6 5 7 9 11 13 12 9 13 17 15 15 17 17 19 19 17 15 7 5 8 6 7 5 11 8
17 17 17 18 19 20 21 22 25 27 27 25 8 7 4 5 6 8 5 4 6 9 3 7 9 11 11 10 12 15 17 18 13 12 4 9 8 2 1 1 6 7 10 7 6 7 8 9 8 9 7 11 10 4 7 9 7 9 7 7 6 4 4 3 6 9 12 11 14 18 18 16 16 18 18 17 16 13 9 8 14 11 5 5 7 8 9
16 17 16 17 19 19 20 22 25 28 30 25 7 7 6 5 7 2 10 6 7 8 13 14 13 15 13 10 11 11 15 17 15 11 8 5 6 9 3 4 9 7 8 8 9 10 7 4 6 7 4 8 7 7 8 10 10 8 7 6 6 2 5 4 6 10 9 11 15 13 18 17 18 17 17 18 17 15 13 11 12 11 9 7 3 5 5
15 16 16 16 18 19 19 23 24 26 30 22 5 8 8 8 8 7 11 9 12 12 11 12 13 12 12 8 10 13 12 18 18 14 13 11 9 11 6 11 6 6 8 8 7 10 9 6 2 7 7 6 3 8 9 5 8 7 7 5 7 4 1 7 6 6 10 12 13 15 16 16 18 18 17 18 17 16 15 12 8 10 10 6 3 4 5
15 16 16 16 17 18 19 21 21 23 25 9 9 7 9 7 6 6 9 12 7 9 10 8 9 11 8 8 12 13 17 17 18 17 16 12 13 6 13 13 6 8 9 7 10 13 14 14 12 10 11 5 2 1 5 8 5 9 7 5 2 5 3 5 6 6 8 10 11 16 13 15 17 14 17 16 18 16 12 9 8 7 6 5 4 4 4
14 15 16 16 16 17 18 19 19 20 23 8 8 7 8 7 6 6 6 8 9 11 12 12 9 6 9 10 14 13 18 17 18 15 11 13 16 15 16 16 5 2 5 7 12 14 13 14 13 11 10 6 7 9 11 11 6 4 8 6 5 5 5 3 2 6 6 8 8 10 11 10 9 13 14 16 12 12 11 14 13 8 5 6 4 6 4
14 14 15 16 16 17 17 18 18 17 14 9 8 8 8 8 9 8 6 9 10 9 10 9 9 8 13 13 17 17 17 19 16 13 10 15 17 16 17 17 7 7 4 7 15 11 13 14 13 11 12 10 11 10 11 13 9 9 7 6 5 5 5 3 1 4 4 6 2 11 5 8 10 7 11 15 15 14 14 11 10 9 9 6 6 6 2
13 13 14 14 15 16 16 17 17 15 14 10 8 7 6 7 8 8 7 9 10 10 9 8 10 12 15 17 16 17 19 19 19 15 17 15 17 11 6 13 13 3 4 13 7 11 13 14 13 11 11 11 11 12 14 13 9 7 9 7 6 6 5 4 5 4 4 6 4 3 7 9 7 11 11 14 15 15 14 10 12 12 12 10 10 10 10
13 13 14 14 14 15 15 15 15 15 14 11 9 8 7 7 7 8 8 8 9 10 10 12 16 17 14 18 19 18 19 20 18 18 16 15 16 14 9 12 14 15 16 2 2 4 6 4 5 5 7 9 11 12 14 14 12 9 8 8 6 3 3 3 4 3 4 5 2 3 3 8 11 10 11 9 12 9 10 12 12 14 15 15 13 13 10
12 13 14 14 14 15 15 14 14 15 14 12 9 8 7 7 6 8 6 7 10 10 11 13 12 13 17 17 17 18 18 16 17 17 14 14 14 14 15 15 15 14 9 4 3 4 4 2 2 4 5 8 4 7 12 12 13 11 10 9 7 6 4 2 3 3 6 1 2 8 7 10 7 6 6 8 9 8 6 4 11 12 13 14 12 11 12
12 12 13 14 14 14 14 13 13 13 14 13 10 8 7 7 5 6 7 8 11 15 13 6 12 15 17 16 15 15 13 13 15 13 16 14 11 12 15 17 16 11 3 2 4 1 1 3 2 3 1 3 5 6 8 9 9 11 10 7 6 5 5 4 4 2 3 3 6 4 4 5 1 6 11 10 4 6 7 5 5 9 10 10 10 13 14
12 12 13 13 14 14 14 13 13 13 13 14 10 8 7 6 5 5 7 7 9 10 5 11 17 15 13 13 15 14 11 10 12 13 13 13 14 17 15 18 15 13 12 9 4 4 2 2 4 4 3 2 4 3 4 6 6 9 10 7 5 5 4 7 4 4 3 3 3 3 4 1 4 12 11 15 9 7 0 5 10 8 11 11 13 15 12
11 12 12 13 13 13 14 13 13 13 13 12 10 10 9 5 4 6 7 7 7 12 16 20 15 13 12 12 11 10 10 9 11 10 12 13 17 15 18 18 11 9 14 7 4 3 3 3 4 6 6 7 5 3 5 6 6 9 11 8 8 7 3 2 6 5 4 3 5 5 2 1 7 9 11 14 10 5 6 9 6 8 9 7 13 14 10
11 12 12 13 13 13 13 12 13 12 12 10 9 9 9 9 5 4 5 7 9 12 10 10 15 12 10 10 13 12 10 10 10 11 10 14 13 14 17 14 12 12 15 8 7 3 2 1 7 5 5 8 6 4 4 6 7 7 10 10 8 6 3 3 5 5 4 5 4 2 4 3 4 8 9 12 9 4 6 8 2 7 8 8 8 7 7
11 11 12 12 13 13 13 13 13 12 12 11 10 10 8 6 4 4 6 7 8 12 15 18 15 14 14 13 11 11 9 11 11 9 10 10 8 18 20 12 10 9 13 8 9 4 5 3 1 1 5 8 9 4 9 4 5 8 11 10 7 4 4 3 3 5 3 3 4 2 4 6 7 7 13 9 6 6 4 4 6 6 6 7 7 5 10
12 12 12 12 13 13 13 13 13 12 12 12 10 9 10 11 9 6 7 9 8 15 17 16 16 15 11 14 13 11 11 11 8 9 9 10 12 18 13 4 9 10 9 9 7 6 5 8 6 4 2 5 6 7 6 5 6 7 7 8 4 4 3 2 2 2 2 3 3 2 3 3 10 12 6 7 2 4 5 7 5 5 6 7 4 5 6
13 13 13 12 13 13 13 14 13 13 13 13 11 9 10 8 8 5 7 8 8 11 13 7 10 17 17 17 17 16 14 13 12 10 10 10 11 9 7 6 11 8 7 7 9 7 5 7 9 3 5 6 6 7 4 7 7 6 8 8 6 6 4 2 1 3 0 1 1 2 1 7 2 6 2 5 4 9 10 7 5 9 9 8 5 5 3
13 13 13 13 14 14 14 15 14 14 13 13 14 10 9 8 9 6 6 6 9 11 14 21 19 20 22 20 19 17 18 18 16 11 10 10 8 8 10 12 9 5 5 5 5 4 6 5 6 4 8 6 6 6 11 6 3 7 7 6 7 9 4 0 2 1 2 1 3 9 8 10 3 5 3 2 5 7 12 11 5 7 7 10 10 9 6
14 13 13 14 14 14 14 14 15 14 14 13 11 8 10 9 8 8 9 11 10 11 13 16 16 18 18 21 22 21 18 13 13 11 10 9 9 8 8 9 6 5 4 4 5 6 7 9 6 7 7 3 6 9 10 3 4 8 4 4 2 6 4 1 5 6 8 8 8 6 8 4 9 5 5 4 4 8 6 8 6 6 7 6 4 9 10
14 13 13 14 14 14 14 14 14 13 13 12 9 9 9 8 10 9 8 8 9 13 14 9 7 5 9 13 15 10 9 14 14 12 9 8 7 8 9 4 8 6 5 5 2 5 7 5 7 6 6 5 7 4 6 3 2 6 9 6 6 8 8 8 5 5 1 2 4 1 8 6 5 5 3 5 3 4 9 9 5 5 5 6 6 7 7
14 13 14 14 14 14 14 14 15 14 12 12 12 10 10 9 8 7 8 7 5 8 11 12 12 15 16 14 14 14 13 11 9 13 13 11 11 10 11 11 10 8 12 10 6 7 3 6 7 6 6 2 3 5 3 4 2 4 5 2 6 4 11 9 8 6 3 3 8 6 5 7 7 7 5 5 8 5 2 11 4 5 10 6 5 3 5
14 13 13 13 14 14 14 15 16 13 11 11 11 10 9 10 9 8 8 8 8 8 12 12 13 10 11 15 16 14 14 13 13 13 12 14 15 14 14 12 11 7 9 8 8 5 4 5 5 6 7 3 6 2 2 4 9 7 6 6 1 7 11 3 10 9 3 4 10 11 3 3 10 6 7 5 6 12 10 4 5 6 7 7 7 6 8
13 13 13 13 14 14 15 15 15 11 10 11 10 9 10 9 9 8 8 8 8 7 5 9 12 15 14 20 21 17 14 12 10 9 11 13 15 14 13 13 12 10 9 9 7 6 4 4 5 7 6 5 3 7 6 3 5 5 5 2 2 6 6 8 9 5 4 2 3 7 5 2 6 5 7 7 6 10 16 6 7 5 4 5 7 8 5
13 13 14 14 14 14 15 16 12 9 9 12 11 10 10 10 10 11 9 7 6 8 12 14 14 18 20 21 15 13 14 13 11 11 12 13 14 13 13 14 12 10 8 7 6 4 4 7 8 5 7 5 5 3 4 3 4 5 4 4 2 3 5 4 2 3 5 8 7 4 6 4 6 2 6 4 5 6 8 8 8 6 5 8 7 10 12
13 13 14 14 14 14 14 11 9 8 10 12 10 11 11 12 12 9 8 4 3 7 9 13 14 14 9 12 19 16 12 8 9 9 10 11 12 12 12 13 12 10 9 7 5 6 6 6 5 7 6 6 6 3 6 3 3 3 4 6 6 3 2 3 2 6 12 13 8 5 1 2 1 4 8 5 7 6 2 6 7 7 9 8 9 10 8
12 13 13 14 14 14 11 9 8 8 10 8 7 7 7 2 5 3 2 1 1 4 6 8 10 5 10 10 12 13 13 12 11 11 12 11 12 11 11 11 11 10 9 6 5 7 5 6 5 8 10 8 7 1 3 6 7 3 5 8 8 7 2 2 6 3 7 10 6 3 3 2 3 4 7 5 3 5 5 5 6 7 8 9 10 9 8
13 13 13 13 14 12 10 11 9 9 10 8 6 3 4 2 4 4 4 3 2 4 5 4 10 11 12 11 12 15 14 12 11 11 11 11 11 11 11 10 10 8 5 5 5 7 5 7 5 8 9 5 2 4 5 7 6 3 5 9 8 4 4 1 3 3 8 8 2 2 5 6 4 3 8 10 12 7 5 5 5 6 5 5 7 8 7
13 13 12 13 12 10 10 11 10 9 8 8 7 6 5 5 4 4 4 6 5 6 5 8 8 5 5 8 7 10 14 14 11 9 9 7 9 8 9 8 7 6 5 6 4 5 6 6 7 9 10 2 3 5 7 7 5 5 4 8 9 3 6 6 5 6 13 8 3 1 1 3 6 9 6 8 11 8 5 5 5 3 5 4 3 6 7
12 12 13 12 11 11 12 12 11 8 8 10 17 21 22 22 15 10 7 6 6 4 3 4 6 6 5 8 13 15 8 7 9 7 8 6 6 2 6 4 6 7 6 5 4 4 4 4 4 7 6 5 2 3 6 6 7 7 8 6 8 5 8 5 5 7 4 2 3 4 4 2 4 4 4 3 6 6 5 3 4 1 4 1 6 6 6
12 12 12 11 11 11 11 13 12 13 12 10 10 9 8 15 15 13 10 6 5 3 1 3 5 7 9 10 11 2 5 8 7 7 7 2 2 2 5 6 5 4 4 6 4 5 6 7 6 6 7 5 4 4 4 7 9 10 8 8 5 3 5 7 6 5 2 4 4 4 4 3 3 2 4 4 5 4 6 5 5 4 2 5 7 7 6
11 12 11 10 10 12 13 12 10 8 8 8 11 3 5 6 6 7 11 7 5 2 2 3 3 7 9 7 6 6 10 9 9 8 7 6 5 8 4 5 2 3 1 4 5 5 5 5 7 5 7 6 3 3 4 9 7 8 7 8 9 8 7 3 9 3 2 3 5 5 4 3 5 5 1 5 5 5 4 3 1 4 4 4 4 5 6
10 10 9 9 13 12 10 10 9 7 7 8 2 5 5 8 6 4 7 8 6 5 4 4 4 8 7 8 8 5 9 10 8 7 6 5 7 6 7 4 6 5 4 3 5 6 5 5 3 6 4 5 4 4 5 5 8 7 8 9 8 9 8 9 12 6 2 3 1 3 6 7 6 5 2 3 2 1 1 2 3 2 3 6 6 4 4
8 7 8 11 8 6 7 6 6 8 3 4 7 7 3 6 2 3 4 3 3 2 5 4 7 10 8 8 4 4 7 7 7 7 7 5 6 4 6 4 6 3 3 4 5 6 7 5 4 5 4 6 6 8 9 8 9 9 8 8 8 8 8 5 11 4 5 2 3 2 2 5 8 9 9 4 3 4 5 4 8 7 7 6 6 6 6
4 5 5 5 5 4 4 3 2 5 9 9 8 4 4 4 3 2 2 3 4 5 5 5 9 9 7 8 8 6 7 7 7 6 5 3 4 4 3 4 5 2 6 4 4 4 4 3 3 5 5 8 10 9 6 8 8 7 8 8 8 9 8 6 9 8 5 1 2 3 3 3 5 5 6 9 5 2 4 3 5 5 6 7 7 6 6
3 4 5 5 3 3 1 3 3 5 6 4 4 2 2 3 2 2 3 3 2 5 5 7 9 8 7 7 8 5 6 5 6 6 6 5 3 4 3 4 1 2 4 3 2 5 4 3 5 5 6 3 8 11 8 6 7 7 8 8 8 8 8 8 9 7 3 1 1 1 2 2 2 4 6 6 4 6 2 2 5 5 7 7 6 6 5
3 4 3 2 5 3 4 5 8 6 3 2 2 2 3 3 4 5 3 3 5 4 3 7 10 9 8 7 6 7 4 6 5 6 6 7 2 5 3 4 3 3 5 4 2 0 3 5 3 4 3 9 10 14 13 12 10 10 8 9 8 8 7 5 5 4 2 3 4 6 5 4 3 3 5 5 3 3 3 2 5 4 5 6 3 5 6
4 4 5 3 3 4 1 4 5 4 2 3 2 3 2 4 4 3 2 5 4 2 6 7 4 5 7 7 6 8 2 3 3 4 4 6 4 5 4 4 2 4 4 5 3 2 3 3 5 2 7 8 10 12 14 12 12 12 12 10 10 8 6 7 3 1 1 4 3 3 5 6 7 9 12 10 3 4 2 3 4 6 6 7 6 6 6
1 2 4 5 5 5 4 4 3 2 3 3 3 4 3 2 2 3 3 4 4 2 5 3 4 4 5 4 7 6 4 3 4 3 3 5 1 2 4 4 3 4 4 3 5 4 2 3 3 4 7 10 11 12 13 14 14 14 14 13 11 9 9 5 6 5 5 5 3 2 4 2 2 3 6 3 4 2 1 3 4 3 4 3 3 6 6
4 5 3 3 2 2 1 3 3 2 2 3 2 3 2 3 3 5 4 3 1 4 1 2 3 3 6 2 6 2 5 3 3 3 3 4 3 2 3 3 3 5 4 4 4 4 4 3 3 5 6 7 10 12 13 13 14 14 14 14 13 10 9 7 4 6 3 3 3 4 1 2 3 3 2 2 1 3 4 5 4 4 3 3 2 3 5
3 3 2 3 2 2 2 5 2 2 3 2 4 4 4 5 4 4 3 2 0 3 3 3 5 5 5 3 6 4 4 3 1 1 3 3 3 3 2 3 4 3 4 3 4 6 3 4 4 6 8 8 9 12 13 14 14 14 14 15 15 15 13 10 9 8 7 5 4 4 3 3 3 1 2 2 4 2 2 3 5 4 4 3 4 5 5
2 2 2 2 2 2 2 2 3 2 5 5 4 6 4 6 3 2 2 2 4 6 5 5 6 6 7 6 4 5 1 3 1 2 2 2 3 3 3 5 3 3 3 5 3 4 2 4 6 6 9 11 12 13 13 13 14 14 14 14 15 15 14 12 14 15 14 10 6 5 4 3 3 4 4 3 2 3 3 3 2 2 3 4 4 4 5
3 3 3 3 2 3 3 3 3 4 3 3 5 7 8 6 6 3 3 2 6 6 6 6 6 6 7 5 4 4 3 4 4 3 3 2 3 5 3 3 3 5 4 4 5 2 4 6 7 8 10 12 13 13 13 13 14 14 15 14 14 15 14 14 9 8 11 14 14 11 7 3 4 4 1 3 4 5 4 3 3 4 3 1 2 3 4
2 2 2 2 3 3 2 4 5 4 4 4 4 5 5 6 5 6 6 5 6 5 6 6 6 6 7 5 4 3 3 2 4 3 1 3 3 3 2 3 3 2 4 5 2 3 4 8 9 11 12 12 13 13 14 14 14 15 16 15 15 17 16 13 8 6 5 9 13 16 14 9 5 2 3 2 3 3 3 3 3 2 3 6 5 3 4
3 2 2 3 3 3 7 6 7 8 8 8 6 6 5 3 4 6 5 3 3 4 6 6 6 5 6 3 4 6 4 3 4 4 3 3 2 3 3 3 4 2 1 2 2 2 5 6 8 9 11 12 12 14 14 14 16 17 16 16 17 17 18 15 13 10 7 8 9 12 13 7 7 3 2 3 1 2 2 3 2 3 6 8 8 5 3
2 1 3 2 2 2 4 7 7 8 6 5 4 4 4 5 6 5 5 4 4 5 5 5 4 3 5 3 4 4 5 2 5 3 2 2 2 2 2 3 4 4 2 2 4 5 6 8 9 10 11 11 12 12 12 13 14 15 15 16 16 16 15 16 16 12 12 10 9 12 15 7 3 2 1 1 1 1 1 1 3 6 5 4 4 4 5
2 2 3 4 3 4 7 7 7 5 5 6 5 5 3 4 4 4 2 4 4 5 6 6 4 3 3 2 4 3 4 3 3 3 3 4 3 3 3 6 2 1 2 5 6 7 8 8 9 9 10 11 12 12 12 13 13 14 14 15 15 15 14 15 17 16 12 8 10 11 11 15 13 3 2 4 3 3 2 2 3 7 7 5 3 5 2
2 3 4 6 7 5 2 3 3 4 4 5 4 3 1 4 4 5 4 4 4 5 3 5 2 2 3 3 3 4 1 2 3 4 4 4 2 3 4 6 3 3 4 5 7 8 8 7 8 8 9 10 11 12 12 12 13 13 14 15 14 15 14 15 15 16 16 15 13 11 11 13 15 5 3 1 1 2 3 3 5 2 4 5 5 5 6
3 5 5 6 9 9 8 7 6 6 6 6 6 6 3 5 3 4 3 5 5 5 5 3 3 3 2 4 3 3 3 3 4 3 4 1 0 2 2 3 6 5 6 6 7 7 7 7 7 9 9 9 10 11 11 11 11 12 14 15 15 15 15 14 14 14 14 14 15 15 13 12 14 9 8 7 5 4 5 4 5 6 6 6 5 4 5
Wind_Direction
344 346 346 345 344 343 341 340 336 338 342 351 349 319 285 265 346 121 144 189 240 293 293 273 226 240 281 313 313 320 308 300 297 269 245 294 266 277 258 275 287 282 306 316 310 315 311 289 306 312 247 201 224 168 187 168 211 197 205 174 181 131 220 218 278 261 226 212 218 220 235 222 206 209 215 203 200 208 214 207 193 222 204 206 193 212 194
343 345 345 345 345 343 342 338 336 336 347 350 337 325 307 308 292 191 108 162 149 307 317 333 330 327 330 321 318 309 311 304 304 257 235 188 303 273 290 289 261 285 302 300 298 317 312 312 301 261 327 302 100 155 186 179 211 208 121 167 140 220 164 222 227 251 179 204 217 226 224 231 221 202 208 202 204 209 222 217 205 241 217 212 205 199 196
340 342 343 344 344 343 342 337 333 334 338 349 338 322 318 293 262 226 148 198 207 248 316 328 319 315 319 319 315 327 328 321 306 282 261 146 234 300 271 296 306 292 294 291 292 287 282 290 303 284 293 350 284 156 199 185 223 198 136 175 162 207 73 128 207 201 200 196 194 202 197 215 217 221 213 218 206 209 218 230 154 289 224 221 212 198 139
341 342 343 345 344 344 342 337 333 332 336 344 341 323 299 315 337 112 187 205 233 238 248 274 290 301 321 321 311 326 316 319 327 199 261 157 176 222 303 299 300 287 291 300 299 299 273 259 286 300 303 280 291 142 199 194 213 183 187 176 203 184 195 194 241 271 241 200 198 200 210 200 215 213 219 211 228 218 218 235 223 203 232 247 233 109 131
342 343 343 344 344 346 344 341 335 333 331 339 329 296 244 298 284 5 333 306 220 256 180 214 242 302 323 308 323 315 307 312 333 334 307 155 172 169 227 303 340 296 311 308 305 295 284 257 259 274 271 307 283 143 221 214 231 134 174 224 263 251 214 223 245 249 262 297 235 212 221 211 212 210 217 227 227 232 214 201 215 199 217 236 223 118 143
341 342 340 343 343 349 347 344 339 334 331 330 311 307 334 305 356 352 30 285 300 320 298 321 317 293 298 276 289 293 304 328 335 335 39 158 167 161 206 200 208 263 288 302 289 286 293 301 280 275 310 356 332 183 218 208 151 153 219 196 235 267 249 248 267 259 278 262 283 231 211 220 214 216 210 212 218 224 217 202 218 207 225 230 215 163 133
340 341 339 341 343 348 348 348 343 338 332 330 291 359 2 352 323 334 32 321 301 303 295 291 282 285 283 293 288 293 325 328 337 327 332 175 210 184 246 227 212 220 265 284 278 286 299 299 325 325 16 299 323 305 172 230 171 182 245 202 173 235 260 287 255 273 258 267 282 273 214 210 213 212 217 221 217 218 226 214 214 229 230 258 308 257 166
335 339 338 338 344 348 348 350 348 341 337 323 347 51 352 16 353 326 337 306 286 275 273 264 259 264 279 286 341 333 324 327 331 332 329 325 332 173 227 267 184 205 221 244 261 267 269 275 232 308 325 337 296 315 283 203 224 217 218 258 168 218 173 170 283 287 276 275 274 280 263 222 212 208 216 214 216 220 220 225 226 237 243 254 267 257 221
332 337 336 336 344 345 347 350 350 344 339 347 1 29 15 349 4 335 321 315 310 311 296 303 279 293 322 342 332 319 330 328 335 323 324 313 325 291 296 340 114 197 215 238 264 263 276 278 266 233 242 261 346 214 302 334 252 198 202 220 176 167 276 351 349 296 273 271 275 277 253 215 217 214 218 220 210 211 205 224 238 247 239 240 245 249 292
328 333 334 335 342 343 346 349 350 350 334 352 359 15 2 348 -0 336 316 299 295 298 296 295 295 308 358 342 320 323 327 321 332 327 316 328 318 328 319 318 339 225 180 254 256 265 271 272 280 275 271 269 257 258 265 264 289 215 209 175 228 192 232 232 217 254 273 267 258 270 287 331 287 225 212 215 216 215 214 220 221 233 261 255 246 223 213
326 329 332 336 340 342 345 347 350 352 349 5 350 351 356 359 337 329 324 303 299 314 326 311 318 336 340 326 325 322 316 322 326 328 313 319 325 325 346 326 330 343 319 200 229 250 252 248 263 296 284 262 255 253 259 265 267 271 227 179 207 243 245 235 251 285 269 259 285 348 303 236 238 250 213 215 219 202 212 206 210 207 223 265 259 237 272
324 327 330 334 336 339 342 343 347 351 349 343 338 331 358 339 322 322 327 317 302 309 313 315 323 326 312 330 326 318 317 320 319 316 320 327 317 345 358 310 328 326 235 149 200 190 235 248 239 229 254 269 263 261 263 256 244 243 250 221 191 220 231 254 270 276 273 283 293 273 248 251 263 270 268 216 216 214 219 223 210 216 219 243 248 232 237
323 324 325 328 331 333 341 341 344 346 346 339 330 324 337 335 323 329 324 309 298 317 319 316 316 303 324 332 324 316 314 309 313 330 319 324 326 334 330 314 333 352 7 48 193 340 330 281 242 222 254 259 252 247 245 247 248 232 255 236 209 202 231 267 253 266 281 268 217 256 251 277 244 250 245 247 256 234 196 211 214 204 207 207 225 236 258
320 321 322 326 325 330 338 342 342 340 341 337 324 323 321 319 333 333 332 324 303 302 306 296 300 332 332 324 316 313 314 317 331 326 326 328 331 332 326 334 353 345 34 340 33 359 329 330 324 185 201 215 277 272 242 245 240 228 221 246 209 195 227 247 298 311 279 343 288 277 301 280 192 253 246 210 217 231 225 206 203 214 201 206 208 220 235
316 317 320 322 323 328 336 340 341 340 337 338 320 304 315 334 338 327 315 309 304 304 292 297 350 330 323 315 318 317 324 331 331 327 323 323 328 333 327 350 343 359 309 45 356 55 2 303 343 331 78 234 191 226 204 211 215 225 220 219 208 204 221 210 222 253 268 315 315 306 222 238 106 354 320 313 251 225 226 250 231 206 208 192 209 214 216
309 314 316 318 321 324 333 336 337 337 336 336 317 316 323 342 317 306 309 309 307 300 323 346 326 317 312 312 313 324 327 332 327 320 322 326 327 324 353 350 342 346 352 1 354 341 337 358 347 305 284 236 227 212 203 198 203 195 204 203 229 181 214 270 283 277 283 282 278 293 280 67 257 293 324 310 321 319 125 214 241 187 205 206 215 219 216
305 309 312 315 318 322 329 334 333 335 334 336 324 316 303 321 311 302 312 304 283 266 287 298 299 307 312 309 324 326 339 322 327 324 324 322 319 338 347 341 334 22 357 350 7 1 349 353 323 293 301 280 227 213 190 199 192 177 179 201 219 208 219 281 265 269 274 295 293 308 321 4 285 304 316 311 302 327 233 205 206 26 334 246 217 218 218
299 304 308 312 316 321 323 327 329 329 327 327 318 310 305 304 293 266 271 286 300 286 270 296 329 320 308 324 308 308 305 302 311 312 297 307 313 2 337 329 343 10 0 354 338 329 12 49 346 343 311 312 312 203 213 187 184 185 178 195 199 207 243 230 269 280 305 300 303 289 257 231 258 308 301 294 286 249 222 208 60 343 347 355 360 328 241
293 297 300 307 312 315 317 319 323 324 328 331 322 303 285 311 328 252 265 265 281 279 291 310 305 298 293 289 282 301 307 313 310 304 310 315 347 346 327 308 16 351 1 -0 343 10 347 26 286 344 314 340 352 342 323 226 184 186 185 187 198 224 257 273 269 271 269 287 304 296 283 298 325 312 296 279 201 196 208 37 291 319 328 355 344 346 1
288 291 294 301 306 307 309 315 319 325 327 333 324 305 302 296 296 277 264 281 286 282 291 293 287 289 314 316 309 305 310 304 300 308 310 308 330 333 326 341 10 354 353 3 0 355 352 354 8 310 356 326 338 303 305 254 193 187 180 172 202 193 199 246 262 2 334 262 283 297 288 297 295 338 315 47 347 50 323 316 319 337 344 338 354 17 351
286 288 292 296 299 300 304 309 315 318 323 327 322 311 300 298 294 269 261 269 282 293 293 276 306 308 300 292 288 285 283 279 290 297 302 299 313 320 326 349 334 348 352 3 344 349 347 343 355 348 333 319 326 309 356 320 252 164 191 174 223 132 214 218 227 134 235 268 218 253 359 259 118 31 355 20 10 321 326 329 350 356 352 346 0 14 348
281 285 290 293 295 298 301 303 306 307 310 316 315 301 289 291 296 295 264 246 258 258 271 291 290 281 277 271 267 261 257 261 269 280 292 297 299 296 294 288 310 349 346 349 345 329 348 339 312 334 328 318 319 324 334 324 276 145 189 145 226 137 233 96 234 158 275 276 212 246 255 271 66 89 141 125 33 337 289 276 44 19 10 6 357 348 359
278 282 286 290 293 296 298 301 305 306 305 309 309 298 295 304 299 310 306 287 278 276 283 280 278 271 264 260 253 249 251 247 248 248 251 272 293 286 288 302 334 328 335 67 344 324 311 321 321 331 315 339 348 324 316 305 317 359 331 270 317 144 165 169 253 253 217 247 247 261 256 54 70 59 62 16 50 266 307 345 21 23 22 36 3 350 353
273 277 282 286 289 292 295 300 306 306 304 309 309 302 293 299 300 302 291 282 284 299 298 268 288 298 300 309 314 307 235 228 237 241 228 228 276 293 288 257 23 323 341 5 38 331 329 313 306 315 306 327 336 320 329 334 15 325 303 289 265 196 181 203 236 219 240 274 172 339 358 30 62 98 94 128 170 305 337 319 350 320 346 49 2 5 22
270 273 280 284 286 289 291 297 303 301 302 305 302 283 279 278 269 278 292 307 306 309 300 297 278 265 278 290 301 290 283 284 248 214 217 223 226 253 271 302 338 319 312 319 309 290 278 304 307 305 309 8 343 315 273 295 234 202 283 329 352 346 1 316 248 248 245 355 32 36 65 76 52 14 12 29 9 346 173 284 296 351 330 13 34 69 27
269 274 279 283 285 288 291 295 299 299 293 299 301 289 286 285 294 299 291 280 273 280 286 287 291 296 305 316 304 302 302 289 277 278 240 220 224 238 260 283 286 288 288 291 291 277 280 286 291 283 297 309 149 230 275 260 298 309 285 286 113 294 301 292 332 310 289 125 17 351 338 51 60 35 8 8 28 310 290 220 87 2 313 3 3 31 55
269 272 278 281 283 284 289 292 300 298 294 296 292 287 279 280 275 268 269 279 309 296 254 282 306 310 320 312 298 292 277 258 241 233 250 252 241 233 238 254 270 282 284 288 282 287 276 265 267 280 286 315 307 273 294 283 278 290 296 38 182 251 296 335 332 319 336 17 313 331 337 32 52 43 329 355 355 319 296 323 62 63 29 50 6 6 54
263 268 274 279 282 286 290 296 300 304 305 299 286 281 277 267 259 251 248 250 249 275 297 297 301 305 309 279 280 304 308 297 277 256 242 238 241 244 244 249 255 266 275 285 295 282 286 283 286 316 305 275 289 299 170 221 285 269 283 12 346 298 298 328 330 325 307 329 352 13 331 33 105 171 216 192 244 228 274 23 36 25 27 25 32 41 13
261 265 271 278 282 285 291 300 303 306 305 301 290 286 277 256 247 241 241 241 274 285 291 288 290 287 293 326 319 301 289 268 259 264 268 267 266 260 251 247 247 252 261 270 271 276 271 266 275 286 294 337 294 318 324 274 265 325 336 298 291 283 207 236 320 338 298 300 315 4 90 276 97 177 245 223 230 242 316 58 50 31 31 33 28 46 66
255 264 271 275 277 284 295 296 305 299 299 299 301 293 291 80 45 7 6 338 289 303 294 310 306 286 311 310 294 301 297 287 276 262 256 257 260 258 255 252 246 237 243 254 275 277 282 292 290 282 278 279 282 290 265 311 308 264 270 273 270 269 255 57 103 136 259 279 300 317 85 78 16 328 308 297 266 302 351 23 57 46 45 38 32 38 37
258 265 271 274 280 289 291 295 298 299 297 276 283 295 284 230 85 22 11 310 354 291 292 280 276 299 293 263 264 276 286 294 295 291 280 269 260 258 257 251 247 239 242 240 245 254 271 273 278 279 284 317 32 272 283 289 291 267 247 266 270 270 107 110 81 345 272 270 265 108 107 112 124 36 348 338 327 341 348 3 22 32 10 70 60 46 32
256 262 267 276 285 284 288 291 290 285 276 269 251 254 317 334 329 347 352 307 328 289 291 300 301 292 297 299 296 315 301 291 287 281 267 244 247 241 255 251 268 260 244 256 259 280 266 270 266 274 284 152 173 284 286 288 291 327 291 254 249 141 143 142 115 226 248 257 260 215 141 129 120 126 177 235 269 276 317 330 334 13 10 37 82 65 41
250 261 269 277 279 281 285 286 284 278 272 287 298 291 286 283 261 240 272 279 283 278 291 276 279 302 280 296 316 301 298 292 283 273 261 201 253 237 265 253 254 251 216 237 238 258 274 269 274 267 286 157 215 274 290 284 300 318 298 306 36 106 246 145 161 214 253 307 304 291 276 286 128 147 157 227 278 308 317 320 325 276 150 26 61 72 73
252 260 270 273 277 282 278 278 278 274 271 270 265 254 244 225 245 221 219 243 278 294 279 267 279 283 287 291 290 334 9 331 322 319 308 306 3 303 276 280 239 250 205 231 240 247 249 265 272 282 300 267 265 290 285 301 301 298 346 31 72 16 299 108 160 120 283 313 319 303 305 328 342 284 167 199 236 264 286 303 318 17 94 70 47 17 29
253 262 266 271 275 276 278 272 272 255 260 258 252 231 73 39 32 164 185 209 222 214 223 230 224 283 302 313 310 337 1 323 318 333 306 293 267 263 277 267 248 234 243 202 253 243 273 278 300 288 276 299 277 245 252 270 304 333 320 322 359 350 329 64 140 59 56 332 310 318 311 292 293 308 292 208 183 211 227 228 65 5 353 43 73 41 46
253 259 268 279 282 280 281 260 232 242 242 248 268 96 118 143 175 164 196 201 235 291 280 279 280 272 294 295 310 338 338 310 311 301 304 321 298 258 249 240 269 252 242 238 262 267 267 268 250 268 282 281 288 298 310 343 301 315 355 352 349 337 336 350 108 150 220 225 285 326 327 330 318 303 310 274 278 235 106 271 212 179 85 54 58 59 46
243 259 284 285 279 262 248 244 204 212 261 89 117 146 232 271 191 171 167 222 220 248 261 280 267 262 259 280 299 294 316 310 331 317 330 314 312 349 324 321 279 294 267 247 238 245 247 258 269 288 293 281 287 302 306 320 352 8 353 349 346 341 338 13 121 162 177 318 42 342 334 354 352 352 346 324 318 329 355 2 52 48 59 59 40 40 34
237 279 279 271 252 257 256 240 201 100 96 106 134 172 191 193 228 196 183 220 203 192 219 225 252 262 271 271 274 308 303 298 329 317 305 345 340 304 304 263 256 264 266 275 291 336 295 210 236 263 275 266 270 288 343 19 2 4 358 350 349 349 340 356 137 163 155 118 295 306 330 13 21 351 338 330 314 284 113 35 61 46 66 58 50 40 36
230 247 240 239 255 254 313 79 155 213 238 160 209 286 226 190 228 226 204 200 196 221 212 234 249 241 244 259 272 276 281 312 304 308 301 24 340 310 287 294 323 331 283 288 264 103 265 259 244 241 257 334 34 20 5 4 358 10 353 351 354 354 344 7 21 20 351 31 122 122 112 163 162 357 318 290 342 327 42 110 82 70 63 49 32 33 31
210 223 227 204 224 233 100 139 174 203 237 250 209 220 268 220 230 255 178 199 219 211 194 234 229 234 236 264 297 308 321 302 308 313 325 312 253 289 338 322 313 294 281 267 273 102 307 294 301 274 38 20 24 7 5 356 356 355 356 350 357 2 348 356 72 47 65 188 175 158 147 219 201 228 245 273 258 254 308 25 88 55 61 79 57 19 26
213 239 237 246 357 5 324 179 203 226 239 247 247 225 236 258 216 252 273 251 268 232 185 256 266 242 192 230 263 270 261 220 273 313 285 285 309 284 281 278 329 302 300 286 308 282 246 264 278 352 37 14 10 4 1 0 358 348 350 351 352 350 4 335 346 192 228 344 14 45 132 173 181 215 238 243 249 317 7 47 56 53 34 36 19 42 26
122 304 335 327 290 262 282 275 261 244 250 240 248 248 243 257 256 235 216 252 258 254 168 197 264 297 308 314 305 318 318 2 324 286 285 285 302 306 309 307 287 274 280 297 324 284 306 298 294 55 20 4 348 6 359 1 350 350 346 350 344 348 338 340 339 325 46 349 23 307 351 289 130 323 289 303 333 351 106 107 94 103 76 62 26 37 36
200 228 308 308 325 263 225 247 202 212 215 210 228 277 231 238 223 245 242 219 247 291 62 169 295 334 271 238 265 224 292 320 292 314 301 292 340 296 284 286 300 271 284 316 281 286 266 275 44 23 10 2 3 2 2 354 353 349 347 347 342 331 329 327 310 309 313 257 309 316 306 263 264 244 332 338 45 344 46 59 63 69 63 45 28 85 54
222 233 226 205 220 252 211 252 185 179 243 204 190 230 224 238 240 219 255 325 119 206 87 325 320 325 315 348 315 319 304 273 123 290 270 283 285 299 316 278 265 298 319 282 286 290 295 67 33 10 344 352 4 8 360 359 355 351 352 345 346 345 340 335 321 294 285 302 316 300 300 310 288 216 210 347 8 347 35 67 66 49 50 340 351 38 54
204 205 208 221 239 204 130 267 194 185 225 233 224 249 256 252 272 20 45 27 292 288 308 287 308 313 305 326 312 276 271 295 127 250 281 318 303 296 279 275 301 311 296 289 288 282 316 41 18 20 7 1 4 8 3 360 355 353 344 346 345 347 343 0 13 358 331 322 304 309 312 315 319 338 337 12 36 49 84 85 53 63 332 349 26 49 75
203 208 184 188 239 249 203 246 192 221 240 237 229 224 245 267 307 294 133 353 311 293 283 305 308 307 290 298 294 311 307 281 282 267 299 291 283 272 269 297 295 286 281 269 264 291 22 359 13 16 12 5 6 4 3 2 357 349 350 349 350 345 342 350 13 18 345 335 335 326 308 317 297 303 26 78 52 69 63 58 41 353 348 350 86 44 44
239 242 267 278 258 232 207 241 234 233 257 251 258 279 280 295 312 312 307 293 286 324 325 321 305 300 297 296 289 273 266 277 273 291 291 273 262 293 318 291 280 253 276 287 327 35 1 347 346 6 12 6 2 359 360 1 357 354 348 348 348 348 347 343 349 24 3 350 334 319 310 297 316 26 105 55 88 77 80 55 16 4 15 22 35 39 41
211 233 216 227 223 211 213 232 246 254 251 260 265 258 271 299 292 286 291 313 324 313 291 303 292 295 281 283 263 275 293 281 282 271 263 283 299 275 288 259 251 275 29 1 35 37 357 359 358 5 10 6 3 359 356 357 357 353 350 350 349 352 351 349 354 0 9 13 337 296 267 296 47 358 37 108 151 112 67 108 205 69 27 15 4 20 41
271 259 214 219 233 256 241 237 239 250 256 270 266 268 282 277 275 288 320 342 314 294 309 302 295 307 273 287 286 279 264 241 259 267 264 261 274 270 257 266 305 298 64 15 4 43 25 14 11 3 4 4 5 356 357 356 355 349 353 351 351 349 356 355 351 352 5 13 20 11 344 340 244 235 77 186 216 195 184 72 31 68 49 61 58 19 328
228 244 250 257 272 262 257 264 263 270 277 266 251 239 234 264 291 296 17 310 323 318 309 285 266 267 290 313 283 291 289 286 282 290 264 254 249 260 257 271 256 280 331 353 24 20 21 18 8 0 359 359 1 355 356 359 355 352 355 356 354 350 354 358 359 2 10 26 22 18 11 335 299 276 336 24 55 95 77 26 347 126 129 114 42 314 102
234 253 254 237 239 260 287 252 252 257 267 280 284 279 334 288 302 296 40 353 317 298 271 270 281 257 260 267 280 275 273 15 302 286 285 305 350 315 309 320 7 19 349 7 26 29 21 16 10 360 356 358 356 354 356 357 359 357 356 0 1 357 354 360 5 5 7 17 19 29 16 355 325 348 22 331 47 311 89 74 307 6 76 26 74 33 29
220 223 234 226 233 252 266 276 274 268 275 287 290 289 307 279 292 298 352 307 294 278 282 304 302 302 310 269 275 303 316 293 275 279 265 120 82 305 336 6 322 334 9 11 22 24 23 19 15 9 1 356 356 354 354 358 360 2 358 -0 4 4 359 1 2 8 9 13 17 15 13 6 312 332 15 16 21 359 1 20 21 17 26 38 39 14 72